Sanford, ME

7:28 AM EDT on October 20, 2017 (GMT -0400)
Sanford Regional

Weather History for KSFM - March, 2013

Change the Weather History Date:

Wednesday, March 6, 2013

  Actual Average Record
Temperature  
Mean Temperature 32 °F -  
Max Temperature 35 °F 35 °F 55 °F (2011)
Min Temperature 30 °F 18 °F -14 °F (2014)
Degree Days  
Heating Degree Days 32    
Moisture  
Dew Point 27 °F    
Average Humidity 75    
Maximum Humidity 93    
Minimum Humidity 52    
Precipitation  
Precipitation 0.02 in - - ()
Sea Level Pressure  
Sea Level Pressure 30.15 in    
Wind  
Wind Speed 16 mph (NE)    
Max Wind Speed 26 mph    
Max Gust Speed 37 mph    
Visibility 9 miles    
Events      
Averages and records for this station are not official NWS values.
T = Trace of Precipitation, MM = Missing Value Source: NWS Daily Summary

Daily Weather History Graph

Daily Weather History Graph

Search for Another Location

Airport or City:

Trip Planner

Search our weather history database for the weather conditions in past years. The results will help you decide how hot, cold, wet, or windy it might be!

Date:

Astronomy

Mar. 06, 2013 Rise Set
Actual Time 6:10 AM EST 5:38 PM EST
Civil Twilight 5:41 AM EST 6:06 PM EST
Nautical Twilight 5:08 AM EST 6:39 PM EST
Astronomical Twilight 4:35 AM EST 7:13 PM EST
Moon 2:24 AM EST (3/6) 12:09 PM EST (3/6)
Length of Visible Light 12h 25m
Length of Day
11h 28m
Waning Crescent, 30% of the Moon is Illuminated
Mar 6
Waning Crescent
Mar 11
New
Mar 19
First Quarter
Mar 27
Full
Apr 3
Last Quarter

Hourly Weather History & Observations

Time (EST) Temp. Windchill Dew Point Humidity Pressure Visibility Wind Dir Wind Speed Gust Speed Precip Events Conditions
12:15 AM 35.6 °F 29.2 °F 32.0 °F 87% 30.09 in 10.0 mi NE 8.1 mph - N/A   Overcast
12:35 AM 35.6 °F 25.9 °F 30.2 °F 81% 30.09 in 7.0 mi ENE 16.1 mph - N/A   Overcast
12:55 AM 33.8 °F 25.8 °F 28.4 °F 81% 30.10 in 10.0 mi NE 10.4 mph - N/A   Overcast
1:15 AM 33.8 °F 25.8 °F 28.4 °F 81% 30.10 in 10.0 mi NE 10.4 mph - N/A   Overcast
1:35 AM 33.8 °F 25.3 °F 30.2 °F 87% 30.10 in 9.0 mi NE 11.5 mph - N/A   Overcast
1:56 AM 33.8 °F 25.8 °F 32.0 °F 93% 30.10 in 10.0 mi NNE 10.4 mph - N/A   Overcast
2:15 AM 33.8 °F 25.8 °F 28.4 °F 81% 30.09 in 9.0 mi NE 10.4 mph - N/A   Overcast
2:35 AM 33.8 °F 27.0 °F 28.4 °F 81% 30.10 in 10.0 mi NNE 8.1 mph - N/A   Overcast
2:55 AM 33.8 °F 25.8 °F 30.2 °F 87% 30.10 in 10.0 mi NNE 10.4 mph 16.1 mph N/A   Overcast
3:15 AM 33.8 °F 23.9 °F 30.2 °F 87% 30.10 in 10.0 mi NE 15.0 mph 18.4 mph N/A   Overcast
3:35 AM 33.8 °F 22.8 °F 30.2 °F 87% 30.09 in 8.0 mi NE 18.4 mph - N/A   Overcast
3:55 AM 33.8 °F 23.5 °F 28.4 °F 81% 30.09 in 9.0 mi NE 16.1 mph - N/A   Overcast
4:15 AM 33.8 °F 23.9 °F 28.4 °F 81% 30.10 in 10.0 mi NE 15.0 mph - N/A   Overcast
4:35 AM 33.8 °F 23.9 °F 32.0 °F 93% 30.11 in 5.0 mi NE 15.0 mph - N/A   Overcast
4:55 AM 33.8 °F 24.3 °F 26.6 °F 75% 30.11 in 5.0 mi NE 13.8 mph 19.6 mph 0.01 in   Overcast
5:15 AM 33.8 °F 25.3 °F 28.4 °F 81% 30.12 in 4.0 mi NE 11.5 mph - N/A   Overcast
5:36 AM 33.8 °F 25.3 °F 32.0 °F 93% 30.13 in 8.0 mi ENE 11.5 mph - N/A   Overcast
5:55 AM 33.8 °F 22.8 °F 28.4 °F 81% 30.13 in 10.0 mi NE 18.4 mph 24.2 mph N/A   Overcast
6:15 AM 33.8 °F 23.5 °F 28.4 °F 81% 30.13 in 10.0 mi ENE 16.1 mph 21.9 mph N/A   Overcast
6:35 AM 33.8 °F 23.5 °F 30.2 °F 87% 30.14 in 10.0 mi ENE 16.1 mph 21.9 mph N/A   Overcast
6:55 AM 33.8 °F 22.8 °F 26.6 °F 75% 30.14 in 10.0 mi ENE 18.4 mph 26.5 mph 0.01 in   Overcast
7:35 AM 33.8 °F 23.5 °F 30.2 °F 87% 30.16 in 10.0 mi NE 16.1 mph 24.2 mph N/A   Overcast
7:55 AM 33.8 °F 23.5 °F 26.6 °F 75% 30.17 in 9.0 mi NE 16.1 mph 27.6 mph N/A   Overcast
8:15 AM 33.8 °F 22.8 °F 24.8 °F 70% 30.17 in 10.0 mi NE 18.4 mph 21.9 mph N/A   Overcast
8:35 AM 33.8 °F 22.8 °F 28.4 °F 81% 30.17 in 10.0 mi NE 18.4 mph 24.2 mph N/A   Overcast
8:55 AM 35.6 °F 24.8 °F 26.6 °F 70% 30.18 in 10.0 mi NE 19.6 mph 23.0 mph N/A   Overcast
9:16 AM 35.6 °F 27.1 °F 23.0 °F 60% 30.18 in 10.0 mi ENE 12.7 mph 23.0 mph N/A   Overcast
9:35 AM 35.6 °F 24.8 °F 26.6 °F 70% 30.18 in 10.0 mi ENE 19.6 mph 26.5 mph N/A   Overcast
9:55 AM 35.6 °F 24.8 °F 26.6 °F 70% 30.18 in 10.0 mi ENE 19.6 mph 32.2 mph N/A   Overcast
10:15 AM 35.6 °F 25.5 °F 19.4 °F 52% 30.17 in 10.0 mi ENE 17.3 mph 26.5 mph N/A   Overcast
10:35 AM 35.6 °F 24.2 °F 24.8 °F 65% 30.17 in 10.0 mi NE 21.9 mph 27.6 mph N/A   Overcast
10:55 AM 35.6 °F 24.5 °F 28.4 °F 75% 30.17 in 10.0 mi ENE 20.7 mph 32.2 mph N/A   Mostly Cloudy
11:15 AM 35.6 °F 24.0 °F 23.0 °F 60% 30.17 in 10.0 mi ENE 23.0 mph 31.1 mph N/A   Overcast
11:35 AM 35.6 °F 26.2 °F 24.8 °F 65% 30.18 in 10.0 mi ENE 15.0 mph 24.2 mph N/A   Overcast
11:55 AM 35.6 °F 24.5 °F 26.6 °F 70% 30.17 in 10.0 mi ENE 20.7 mph 26.5 mph N/A   Overcast
12:15 PM 35.6 °F 25.5 °F 26.6 °F 70% 30.17 in 6.0 mi ENE 17.3 mph 35.7 mph N/A   Mostly Cloudy
12:35 PM 35.6 °F 23.4 °F 24.8 °F 65% 30.15 in 10.0 mi ENE 25.3 mph 34.5 mph N/A   Overcast
12:55 PM 35.6 °F 23.2 °F 26.6 °F 70% 30.15 in 10.0 mi ENE 26.5 mph 36.8 mph N/A   Overcast
1:15 PM 35.6 °F 24.5 °F 28.4 °F 75% 30.15 in 10.0 mi NE 20.7 mph 34.5 mph N/A   Overcast
1:35 PM 35.6 °F 24.2 °F 24.8 °F 65% 30.15 in 10.0 mi ENE 21.9 mph 31.1 mph N/A   Overcast
1:55 PM 35.6 °F 25.5 °F 24.8 °F 65% 30.15 in 10.0 mi ENE 17.3 mph 32.2 mph N/A   Overcast
2:15 PM 35.6 °F 24.5 °F 28.4 °F 75% 30.16 in 10.0 mi East 20.7 mph 34.5 mph N/A   Overcast
2:35 PM 35.6 °F 24.5 °F 21.2 °F 56% 30.16 in 10.0 mi ENE 20.7 mph 31.1 mph N/A   Overcast
2:55 PM 35.6 °F 24.8 °F 23.0 °F 60% 30.16 in 9.0 mi ENE 19.6 mph 28.8 mph N/A   Overcast
3:15 PM 35.6 °F 24.2 °F 26.6 °F 70% 30.16 in 10.0 mi ENE 21.9 mph 32.2 mph N/A   Overcast
3:35 PM 33.8 °F 23.2 °F 26.6 °F 75% 30.16 in 10.0 mi ENE 17.3 mph 28.8 mph N/A   Overcast
3:55 PM 33.8 °F 21.3 °F 21.2 °F 60% 30.16 in 10.0 mi ENE 24.2 mph 32.2 mph N/A   Overcast
4:15 PM 33.8 °F 20.8 °F 26.6 °F 75% 30.16 in 10.0 mi NE 26.5 mph 31.1 mph N/A   Overcast
4:35 PM 33.8 °F 22.8 °F 24.8 °F 70% 30.17 in 10.0 mi NE 18.4 mph 27.6 mph N/A   Overcast
4:55 PM 33.8 °F 22.8 °F 23.0 °F 65% 30.17 in 9.0 mi NE 18.4 mph 23.0 mph N/A   Overcast
5:15 PM 33.8 °F 23.2 °F 26.6 °F 75% 30.18 in 10.0 mi NE 17.3 mph 24.2 mph N/A   Overcast
5:35 PM 33.8 °F 22.2 °F 26.6 °F 75% 30.17 in 5.0 mi NE 20.7 mph 26.5 mph N/A   Overcast
5:55 PM 33.8 °F 22.5 °F 24.8 °F 70% 30.18 in 9.0 mi NE 19.6 mph 26.5 mph N/A   Overcast
6:15 PM 33.8 °F 22.2 °F 28.4 °F 81% 30.19 in 10.0 mi NE 20.7 mph 26.5 mph N/A   Overcast
6:35 PM 33.8 °F 22.8 °F 24.8 °F 70% 30.19 in 10.0 mi NE 18.4 mph 23.0 mph N/A   Overcast
6:55 PM 33.8 °F 23.2 °F 24.8 °F 70% 30.19 in 10.0 mi NE 17.3 mph 24.2 mph N/A   Overcast
7:15 PM 33.8 °F 22.5 °F 26.6 °F 75% 30.18 in 10.0 mi NE 19.6 mph 27.6 mph N/A   Overcast
7:35 PM 33.8 °F 21.9 °F 21.2 °F 60% 30.17 in 10.0 mi NE 21.9 mph 29.9 mph N/A   Mostly Cloudy
7:55 PM 33.8 °F 22.5 °F 24.8 °F 70% 30.18 in 10.0 mi NE 19.6 mph 26.5 mph N/A   Overcast
8:15 PM 33.8 °F 22.5 °F 26.6 °F 75% 30.17 in 10.0 mi NE 19.6 mph 26.5 mph N/A   Overcast
8:35 PM 33.8 °F 22.8 °F 21.2 °F 60% 30.17 in 10.0 mi NNE 18.4 mph 28.8 mph N/A   Overcast
8:55 PM 32.0 °F 19.8 °F 26.6 °F 80% 30.16 in 10.0 mi NE 20.7 mph 26.5 mph N/A   Overcast
9:35 PM 32.0 °F 21.6 °F 23.0 °F 69% 30.17 in 10.0 mi NNE 15.0 mph 25.3 mph N/A   Overcast
9:55 PM 32.0 °F 20.1 °F 28.4 °F 87% 30.16 in 10.0 mi NNE 19.6 mph - N/A   Overcast
10:35 PM 32.0 °F 21.6 °F 24.8 °F 75% 30.15 in 10.0 mi NE 15.0 mph 25.3 mph N/A   Overcast
10:55 PM 32.0 °F 18.9 °F 26.6 °F 80% 30.14 in 10.0 mi NE 24.2 mph 27.6 mph N/A   Overcast
11:15 PM 30.2 °F 16.8 °F 21.2 °F 69% 30.14 in 10.0 mi NE 23.0 mph 27.6 mph N/A   Overcast
11:35 PM 30.2 °F 18.1 °F 26.6 °F 86% 30.14 in 10.0 mi NE 18.4 mph 23.0 mph N/A   Overcast
11:55 PM 30.2 °F 18.5 °F 23.0 °F 75% 30.14 in 10.0 mi NNE 17.3 mph - N/A   Overcast